ABD2AS EDDF-TFFF

Flight info

Callsign ABD2AS
Flight time N/A
Altitude 32000
Route SOBRA1F SOBRA Y180 DIK UN857 TOLVU DCT RAPOR DCT GIMER DCT ESTOC DCT PON DCT DITAL DCT GODIX DCT DIDAK DCT AKEMO DCT RIVAK/M084F320 UN460 SIVIR DCT PASAS DCT 42N020W 36N030W 30N040W 24N050W DCT ELJEZ/N0503F320 DCT SESPO RD2 FOF
Aircraft A346/H-SDE2E3FGHIJ3J4J5M1RWXY/LB1D1

Departure

Time N/A
Airport Frankfurt Main Airport (EDDF)

Arrival

Time 2026-04-26 11:09
Airport Martinique Aimé Césaire International Airport (TFFF)
Time Latitude Longitude Altitude Speed Heading
2026-04-26 08:10 27.20707 -44.93605 34033 ft 404 kts 240°
2026-04-26 08:10 27.19125 -44.96244 34031 ft 404 kts 240°
2026-04-26 08:11 27.15975 -45.01496 34033 ft 404 kts 240°
2026-04-26 08:11 27.12849 -45.06701 34036 ft 406 kts 239°
2026-04-26 08:12 27.11261 -45.09344 34191 ft 405 kts 240°
2026-04-26 08:12 27.09683 -45.11965 34372 ft 403 kts 240°
2026-04-26 08:12 27.08111 -45.14574 34574 ft 402 kts 240°
2026-04-26 08:12 27.06550 -45.17166 34749 ft 400 kts 240°
2026-04-26 08:13 27.04988 -45.19758 34924 ft 399 kts 240°
2026-04-26 08:13 27.03432 -45.22341 35100 ft 398 kts 240°
2026-04-26 08:13 27.01885 -45.24906 35305 ft 397 kts 240°
2026-04-26 08:13 27.00335 -45.27472 35497 ft 396 kts 240°
2026-04-26 08:14 26.98793 -45.30025 35695 ft 394 kts 240°
2026-04-26 08:14 26.97259 -45.32564 35898 ft 392 kts 240°
2026-04-26 08:14 26.95726 -45.35098 36020 ft 391 kts 240°
2026-04-26 08:14 26.94177 -45.37660 36023 ft 390 kts 240°
2026-04-26 08:15 26.91127 -45.42704 36029 ft 391 kts 240°
2026-04-26 08:15 26.88072 -45.47746 36033 ft 391 kts 240°
2026-04-26 08:16 26.85034 -45.52755 36032 ft 391 kts 240°
2026-04-26 08:16 26.81965 -45.57808 36033 ft 391 kts 240°
2026-04-26 08:17 26.78906 -45.62841 36011 ft 391 kts 240°
2026-04-26 08:17 26.75833 -45.67887 36027 ft 392 kts 240°
2026-04-26 08:18 26.72751 -45.72944 36036 ft 392 kts 240°
2026-04-26 08:18 26.69676 -45.77984 36042 ft 392 kts 240°
2026-04-26 08:19 26.66605 -45.83012 36039 ft 391 kts 240°
2026-04-26 08:19 26.63524 -45.88049 36027 ft 392 kts 240°
2026-04-26 08:20 26.60433 -45.93099 36039 ft 392 kts 240°
2026-04-26 08:20 26.57347 -45.98133 36042 ft 392 kts 240°
2026-04-26 08:21 26.54255 -46.03173 36040 ft 392 kts 240°
2026-04-26 08:21 26.51159 -46.08212 36024 ft 393 kts 240°
2026-04-26 08:22 26.48061 -46.13251 36031 ft 393 kts 240°
2026-04-26 08:22 26.44982 -46.18252 36047 ft 393 kts 240°
2026-04-26 08:23 26.41876 -46.23292 36043 ft 393 kts 240°
2026-04-26 08:23 26.38772 -46.28322 36012 ft 393 kts 240°
2026-04-26 08:24 26.35662 -46.33359 36032 ft 394 kts 240°
2026-04-26 08:24 26.32541 -46.38406 36042 ft 394 kts 240°
2026-04-26 08:25 26.29425 -46.43439 36040 ft 394 kts 240°
2026-04-26 08:25 26.26308 -46.48468 36040 ft 394 kts 240°
2026-04-26 08:26 26.23183 -46.53506 36028 ft 395 kts 240°
2026-04-26 08:26 26.20049 -46.58553 36046 ft 395 kts 240°
2026-04-26 08:27 26.16935 -46.63561 36041 ft 395 kts 240°
2026-04-26 08:27 26.13806 -46.68587 36037 ft 394 kts 240°
2026-04-26 08:28 26.10672 -46.73617 36033 ft 395 kts 240°
2026-04-26 08:28 26.07527 -46.78658 36042 ft 396 kts 240°
2026-04-26 08:29 26.04386 -46.83689 36043 ft 396 kts 240°
2026-04-26 08:29 26.01234 -46.88730 36044 ft 396 kts 240°
2026-04-26 08:30 25.98085 -46.93762 36043 ft 396 kts 240°
2026-04-26 08:30 25.94929 -46.98798 36041 ft 397 kts 240°
2026-04-26 08:31 25.92302 -47.02989 36043 ft 397 kts 240°
2026-04-26 08:31 25.89139 -47.08026 36043 ft 397 kts 240°
2026-04-26 08:32 25.85977 -47.13057 36043 ft 397 kts 240°
2026-04-26 08:32 25.82808 -47.18095 36055 ft 397 kts 240°
2026-04-26 08:33 25.79646 -47.23116 36049 ft 396 kts 240°
2026-04-26 08:33 25.76475 -47.28146 36047 ft 396 kts 240°
2026-04-26 08:34 25.73310 -47.33160 36046 ft 396 kts 240°
2026-04-26 08:34 25.70143 -47.38172 36046 ft 396 kts 240°
2026-04-26 08:35 25.66975 -47.43178 36042 ft 397 kts 240°
2026-04-26 08:35 25.63820 -47.48162 36045 ft 397 kts 240°
2026-04-26 08:36 25.60635 -47.53187 36049 ft 397 kts 240°
2026-04-26 08:36 25.57455 -47.58199 36049 ft 397 kts 240°
2026-04-26 08:37 25.54267 -47.63216 36054 ft 397 kts 240°
2026-04-26 08:37 25.51086 -47.68219 36047 ft 397 kts 240°
2026-04-26 08:38 25.47904 -47.73218 36047 ft 397 kts 240°
2026-04-26 08:38 25.44716 -47.78221 36053 ft 397 kts 240°
2026-04-26 08:39 25.41524 -47.83224 36057 ft 397 kts 240°
2026-04-26 08:39 25.38334 -47.88218 36032 ft 397 kts 240°
2026-04-26 08:40 25.35165 -47.93175 36050 ft 397 kts 240°
2026-04-26 08:40 25.31971 -47.98167 36051 ft 397 kts 240°
2026-04-26 08:41 25.28769 -48.03164 36060 ft 397 kts 240°
2026-04-26 08:41 25.25573 -48.08148 36058 ft 397 kts 240°
2026-04-26 08:42 25.22377 -48.13126 36047 ft 397 kts 240°
2026-04-26 08:42 25.19165 -48.18125 36049 ft 398 kts 240°
2026-04-26 08:43 25.15977 -48.23079 36061 ft 398 kts 239°
2026-04-26 08:43 25.12769 -48.28060 36058 ft 398 kts 239°
2026-04-26 08:44 25.09548 -48.33057 36055 ft 398 kts 239°
2026-04-26 08:44 25.06332 -48.38041 36049 ft 399 kts 239°
2026-04-26 08:45 25.03107 -48.43032 36056 ft 399 kts 239°
2026-04-26 08:45 24.99880 -48.48023 36062 ft 399 kts 239°
2026-04-26 08:46 24.96655 -48.53005 36057 ft 399 kts 239°
2026-04-26 08:46 24.93422 -48.57992 36038 ft 399 kts 239°
2026-04-26 08:47 24.90216 -48.62936 36055 ft 400 kts 239°
2026-04-26 08:47 24.86969 -48.67934 36063 ft 400 kts 239°
2026-04-26 08:48 24.83731 -48.72915 36061 ft 400 kts 239°
2026-04-26 08:48 24.80486 -48.77902 36058 ft 400 kts 239°
2026-04-26 08:49 24.77239 -48.82887 36036 ft 400 kts 239°
2026-04-26 08:49 24.73986 -48.87877 36062 ft 401 kts 239°
2026-04-26 08:50 24.70721 -48.92879 36061 ft 401 kts 239°
2026-04-26 08:50 24.67447 -48.97889 36060 ft 401 kts 239°
2026-04-26 08:51 24.62584 -49.05322 36063 ft 401 kts 239°
2026-04-26 08:52 24.59313 -49.10317 36056 ft 402 kts 239°
2026-04-26 08:52 24.56039 -49.15308 36064 ft 402 kts 239°
2026-04-26 08:53 24.52761 -49.20301 36065 ft 402 kts 239°
2026-04-26 08:53 24.49476 -49.25300 36065 ft 402 kts 239°
2026-04-26 08:54 24.46193 -49.30290 36065 ft 402 kts 239°
2026-04-26 08:54 24.42911 -49.35276 36056 ft 404 kts 239°
2026-04-26 08:55 24.39612 -49.40281 36065 ft 404 kts 239°
2026-04-26 08:55 24.36342 -49.45236 36065 ft 404 kts 239°
2026-04-26 08:56 24.33013 -49.50277 36063 ft 404 kts 239°
2026-04-26 08:56 24.29732 -49.55239 36073 ft 403 kts 239°
2026-04-26 08:57 24.26425 -49.60235 36072 ft 403 kts 239°
2026-04-26 08:57 24.23124 -49.65218 36069 ft 403 kts 239°
2026-04-26 08:58 24.19829 -49.70189 36069 ft 403 kts 239°
2026-04-26 08:58 24.16533 -49.75155 36077 ft 403 kts 239°
2026-04-26 08:59 24.13239 -49.80111 36046 ft 402 kts 239°
2026-04-26 08:59 24.09931 -49.85090 36064 ft 405 kts 239°
2026-04-26 09:00 24.06614 -49.90072 36065 ft 405 kts 239°
2026-04-26 09:00 24.03295 -49.95053 36070 ft 405 kts 239°
2026-04-26 09:01 23.99931 -49.99958 36077 ft 405 kts 236°
2026-04-26 09:01 23.96242 -50.04646 36050 ft 407 kts 234°
2026-04-26 09:02 23.92495 -50.09328 36066 ft 409 kts 234°
2026-04-26 09:02 23.88736 -50.14014 36082 ft 410 kts 234°
2026-04-26 09:03 23.84974 -50.18696 36069 ft 410 kts 234°
2026-04-26 09:03 23.81212 -50.23374 36075 ft 408 kts 234°
2026-04-26 09:04 23.77458 -50.28036 36051 ft 409 kts 234°
2026-04-26 09:04 23.73689 -50.32711 36068 ft 410 kts 234°
2026-04-26 09:05 23.69916 -50.37387 36064 ft 410 kts 234°
2026-04-26 09:05 23.66145 -50.42056 36075 ft 411 kts 234°
2026-04-26 09:06 23.62367 -50.46729 36083 ft 410 kts 234°
2026-04-26 09:06 23.58591 -50.51396 36066 ft 411 kts 234°
2026-04-26 09:07 23.54802 -50.56074 36072 ft 411 kts 234°
2026-04-26 09:07 23.51019 -50.60739 36076 ft 411 kts 234°
2026-04-26 09:08 23.47226 -50.65412 36084 ft 411 kts 234°
2026-04-26 09:08 23.43436 -50.70078 36080 ft 410 kts 234°
2026-04-26 09:09 23.39638 -50.74751 36069 ft 411 kts 234°
2026-04-26 09:09 23.35835 -50.79423 36072 ft 411 kts 234°
2026-04-26 09:10 23.32069 -50.84047 36073 ft 411 kts 234°
2026-04-26 09:10 23.28273 -50.88702 36080 ft 411 kts 234°
2026-04-26 09:11 23.24481 -50.93348 36061 ft 411 kts 234°
2026-04-26 09:11 23.20680 -50.98004 36071 ft 411 kts 233°
2026-04-26 09:12 23.16881 -51.02649 36072 ft 411 kts 233°
2026-04-26 09:12 23.13074 -51.07301 36075 ft 411 kts 233°
2026-04-26 09:13 23.09265 -51.11950 36073 ft 411 kts 233°
2026-04-26 09:13 23.05464 -51.16587 36053 ft 411 kts 233°
2026-04-26 09:14 23.01650 -51.21239 36072 ft 411 kts 233°
2026-04-26 09:14 22.97842 -51.25872 36075 ft 411 kts 233°
2026-04-26 09:15 22.94053 -51.30479 36076 ft 411 kts 233°
2026-04-26 09:15 22.90240 -51.35112 36082 ft 411 kts 233°
2026-04-26 09:16 22.86431 -51.39737 36057 ft 411 kts 233°
2026-04-26 09:16 22.82610 -51.44374 36066 ft 411 kts 233°
2026-04-26 09:17 22.78782 -51.49012 36074 ft 411 kts 233°
2026-04-26 09:17 22.74963 -51.53635 36071 ft 411 kts 233°
2026-04-26 09:18 22.71103 -51.58304 36082 ft 411 kts 233°
2026-04-26 09:18 22.67280 -51.62925 36059 ft 412 kts 233°
2026-04-26 09:19 22.63447 -51.67555 36076 ft 413 kts 233°
2026-04-26 09:19 22.60232 -51.71432 36070 ft 413 kts 233°
2026-04-26 09:20 22.55760 -51.76823 36083 ft 413 kts 233°
2026-04-26 09:20 22.51919 -51.81448 36077 ft 413 kts 233°
2026-04-26 09:21 22.48724 -51.85292 36074 ft 412 kts 232°
2026-04-26 09:21 22.44886 -51.89906 36073 ft 412 kts 232°
2026-04-26 09:22 22.41055 -51.94507 36076 ft 412 kts 232°
2026-04-26 09:22 22.37214 -51.99117 36080 ft 412 kts 232°
2026-04-26 09:23 22.33375 -52.03720 36076 ft 412 kts 232°
2026-04-26 09:23 22.29533 -52.08324 36057 ft 412 kts 232°
2026-04-26 09:24 22.25689 -52.12925 36082 ft 412 kts 232°
2026-04-26 09:24 22.21838 -52.17530 36066 ft 412 kts 232°
2026-04-26 09:25 22.17984 -52.22134 36082 ft 412 kts 232°
2026-04-26 09:25 22.14158 -52.26702 36071 ft 412 kts 232°
2026-04-26 09:26 22.10308 -52.31294 36057 ft 412 kts 232°
2026-04-26 09:26 22.06443 -52.35901 36073 ft 414 kts 232°
2026-04-26 09:27 22.02573 -52.40508 36071 ft 415 kts 232°
2026-04-26 09:27 21.98693 -52.45123 36072 ft 415 kts 232°
2026-04-26 09:28 21.94821 -52.49724 36071 ft 415 kts 232°
2026-04-26 09:28 21.90940 -52.54332 36059 ft 414 kts 232°
2026-04-26 09:29 21.87066 -52.58930 36068 ft 415 kts 232°
2026-04-26 09:29 21.83175 -52.63542 36069 ft 416 kts 232°
2026-04-26 09:30 21.79282 -52.68152 36068 ft 416 kts 232°
2026-04-26 09:30 21.75413 -52.72730 36071 ft 416 kts 232°
2026-04-26 09:31 21.71519 -52.77333 36076 ft 416 kts 232°
2026-04-26 09:31 21.67622 -52.81938 36066 ft 416 kts 232°
2026-04-26 09:32 21.63713 -52.86551 36064 ft 417 kts 232°
2026-04-26 09:32 21.59802 -52.91162 36066 ft 417 kts 232°
2026-04-26 09:33 21.55893 -52.95768 36068 ft 417 kts 232°
2026-04-26 09:33 21.51980 -53.00374 36069 ft 417 kts 232°
2026-04-26 09:34 21.48063 -53.04983 36060 ft 418 kts 232°
2026-04-26 09:34 21.44137 -53.09596 36065 ft 418 kts 232°
2026-04-26 09:35 21.40213 -53.14203 36067 ft 418 kts 232°
2026-04-26 09:35 21.36281 -53.18816 36068 ft 418 kts 231°
2026-04-26 09:36 21.32355 -53.23417 36065 ft 418 kts 231°
2026-04-26 09:36 21.28423 -53.28023 36062 ft 419 kts 231°
2026-04-26 09:37 21.24480 -53.32638 36067 ft 420 kts 231°
2026-04-26 09:37 21.20530 -53.37255 36067 ft 420 kts 231°
2026-04-26 09:38 21.16607 -53.41837 36067 ft 420 kts 231°
2026-04-26 09:38 21.12653 -53.46452 36066 ft 420 kts 231°
2026-04-26 09:39 21.08696 -53.51066 36055 ft 420 kts 231°
2026-04-26 09:39 21.04729 -53.55689 36067 ft 421 kts 231°
2026-04-26 09:40 21.00756 -53.60314 36069 ft 421 kts 231°
2026-04-26 09:40 20.96785 -53.64932 36069 ft 421 kts 231°
2026-04-26 09:41 20.92834 -53.69525 36066 ft 421 kts 231°
2026-04-26 09:41 20.88853 -53.74147 36059 ft 422 kts 231°
2026-04-26 09:42 20.84864 -53.78777 36066 ft 423 kts 231°
2026-04-26 09:42 20.80865 -53.83413 36067 ft 423 kts 231°
2026-04-26 09:43 20.76868 -53.88042 36066 ft 423 kts 231°
2026-04-26 09:43 20.72875 -53.92663 36067 ft 423 kts 231°
2026-04-26 09:44 20.68875 -53.97288 36061 ft 423 kts 231°
2026-04-26 09:44 20.64871 -54.01916 36060 ft 424 kts 231°
2026-04-26 09:45 20.60854 -54.06552 36067 ft 424 kts 231°
2026-04-26 09:45 20.56846 -54.11175 36068 ft 424 kts 231°
2026-04-26 09:46 20.52831 -54.15802 36063 ft 424 kts 231°
2026-04-26 09:46 20.48845 -54.20392 36063 ft 424 kts 231°
2026-04-26 09:47 20.44825 -54.25018 36072 ft 424 kts 231°
2026-04-26 09:47 20.40820 -54.29622 36067 ft 423 kts 231°
2026-04-26 09:48 20.36816 -54.34222 36064 ft 423 kts 231°
2026-04-26 09:48 20.32814 -54.38815 36066 ft 423 kts 231°
2026-04-26 09:49 20.28808 -54.43410 36067 ft 423 kts 231°
2026-04-26 09:49 20.24799 -54.48003 36049 ft 423 kts 231°
2026-04-26 09:50 20.20777 -54.52610 36064 ft 424 kts 231°
2026-04-26 09:50 20.16753 -54.57213 36059 ft 424 kts 231°
2026-04-26 09:51 20.12760 -54.61777 36061 ft 424 kts 231°
2026-04-26 09:51 20.08742 -54.66366 36060 ft 424 kts 231°
2026-04-26 09:52 20.04711 -54.70966 36061 ft 424 kts 231°
2026-04-26 09:52 19.98664 -54.77862 36059 ft 425 kts 230°
2026-04-26 09:53 19.94624 -54.82463 36063 ft 425 kts 230°
2026-04-26 09:53 19.90586 -54.87058 36063 ft 425 kts 230°
2026-04-26 09:54 19.86449 -54.91763 36060 ft 425 kts 230°
2026-04-26 09:54 19.82378 -54.96388 36061 ft 425 kts 230°
2026-04-26 09:55 19.78339 -55.00975 36057 ft 427 kts 230°
2026-04-26 09:55 19.74277 -55.05583 36060 ft 426 kts 230°
2026-04-26 09:56 19.70224 -55.10176 36061 ft 426 kts 230°
2026-04-26 09:56 19.66167 -55.14771 36058 ft 426 kts 230°
2026-04-26 09:57 19.62100 -55.19374 36058 ft 426 kts 230°
2026-04-26 09:57 19.58019 -55.23989 36048 ft 427 kts 230°
2026-04-26 09:58 19.53945 -55.28594 36063 ft 428 kts 230°
2026-04-26 09:58 19.49873 -55.33189 36062 ft 426 kts 230°
2026-04-26 09:59 19.46495 -55.37000 36057 ft 426 kts 230°
2026-04-26 09:59 19.41762 -55.42335 36059 ft 426 kts 230°
2026-04-26 10:00 19.37670 -55.46944 36062 ft 426 kts 230°
2026-04-26 10:00 19.33594 -55.51537 36055 ft 430 kts 230°
2026-04-26 10:01 19.29485 -55.56153 36061 ft 429 kts 230°
2026-04-26 10:01 19.25385 -55.60759 36059 ft 429 kts 230°
2026-04-26 10:02 19.21294 -55.65353 36054 ft 428 kts 230°
2026-04-26 10:02 19.17198 -55.69948 36050 ft 428 kts 230°
2026-04-26 10:03 19.13103 -55.74540 36042 ft 429 kts 230°
2026-04-26 10:03 19.09007 -55.79133 36058 ft 432 kts 229°
2026-04-26 10:04 19.04880 -55.83749 36058 ft 431 kts 229°
2026-04-26 10:04 19.00756 -55.88360 36057 ft 431 kts 229°
2026-04-26 10:05 18.96629 -55.92972 36055 ft 431 kts 229°
2026-04-26 10:05 18.92503 -55.97581 36055 ft 432 kts 229°
2026-04-26 10:06 18.88285 -56.02293 36049 ft 446 kts 229°
2026-04-26 10:06 18.83983 -56.07089 36049 ft 449 kts 229°
2026-04-26 10:07 18.79706 -56.11850 36052 ft 450 kts 229°
2026-04-26 10:07 18.75397 -56.16646 36052 ft 450 kts 229°
2026-04-26 10:08 18.71074 -56.21453 36052 ft 450 kts 229°
2026-04-26 10:08 18.66762 -56.26248 36040 ft 451 kts 229°
2026-04-26 10:09 18.63135 -56.30278 36056 ft 452 kts 229°
2026-04-26 10:09 18.58798 -56.35088 36050 ft 452 kts 229°
2026-04-26 10:10 18.54492 -56.39864 36052 ft 451 kts 229°
2026-04-26 10:10 18.50154 -56.44671 36049 ft 451 kts 229°
2026-04-26 10:11 18.45813 -56.49478 36053 ft 451 kts 229°
2026-04-26 10:11 18.41471 -56.54286 36047 ft 453 kts 229°
2026-04-26 10:12 18.37114 -56.59101 36052 ft 454 kts 229°
2026-04-26 10:12 18.32757 -56.63911 36049 ft 453 kts 229°
2026-04-26 10:13 18.28409 -56.68712 36048 ft 453 kts 229°
2026-04-26 10:13 18.24082 -56.73485 36049 ft 453 kts 229°
2026-04-26 10:14 18.19721 -56.78293 36046 ft 453 kts 229°
2026-04-26 10:14 18.15367 -56.83088 36047 ft 453 kts 229°
2026-04-26 10:15 18.11006 -56.87887 36051 ft 452 kts 229°
2026-04-26 10:15 18.06659 -56.92670 36049 ft 452 kts 229°
2026-04-26 10:16 18.02307 -56.97527 36047 ft 451 kts 231°
2026-04-26 10:16 17.98354 -57.02670 36048 ft 450 kts 235°
2026-04-26 10:17 17.94807 -57.08111 36044 ft 452 kts 237°
2026-04-26 10:17 17.91289 -57.13610 36045 ft 452 kts 237°
2026-04-26 10:18 17.87769 -57.19109 36045 ft 451 kts 237°
2026-04-26 10:18 17.84266 -57.24581 36044 ft 451 kts 237°
2026-04-26 10:19 17.80761 -57.30052 36041 ft 451 kts 237°
2026-04-26 10:19 17.77255 -57.35521 36041 ft 451 kts 237°
2026-04-26 10:20 17.73748 -57.40988 36035 ft 451 kts 237°
2026-04-26 10:20 17.70237 -57.46456 36040 ft 452 kts 237°
2026-04-26 10:21 17.66712 -57.51938 36035 ft 452 kts 237°
2026-04-26 10:21 17.63192 -57.57409 36036 ft 452 kts 237°
2026-04-26 10:22 17.59670 -57.62880 36036 ft 452 kts 237°
2026-04-26 10:22 17.56166 -57.68319 36038 ft 452 kts 237°
2026-04-26 10:23 17.52647 -57.73777 36035 ft 451 kts 237°
2026-04-26 10:23 17.49119 -57.79246 36031 ft 453 kts 237°
2026-04-26 10:24 17.45576 -57.84729 36035 ft 453 kts 237°
2026-04-26 10:24 17.42033 -57.90209 36034 ft 453 kts 237°
2026-04-26 10:25 17.38493 -57.95682 36033 ft 453 kts 237°
2026-04-26 10:25 17.34956 -58.01144 36032 ft 453 kts 237°
2026-04-26 10:26 17.31435 -58.06577 36031 ft 453 kts 237°
2026-04-26 10:26 17.27888 -58.12048 36023 ft 454 kts 236°
2026-04-26 10:27 17.24331 -58.17529 36036 ft 455 kts 236°
2026-04-26 10:27 17.20764 -58.23021 36033 ft 455 kts 236°
2026-04-26 10:28 17.17206 -58.28493 36028 ft 455 kts 236°
2026-04-26 10:28 17.13643 -58.33970 36028 ft 455 kts 236°
2026-04-26 10:29 17.10072 -58.39455 36030 ft 455 kts 236°
2026-04-26 10:29 17.06504 -58.44931 36030 ft 455 kts 236°
2026-04-26 10:30 17.02958 -58.50369 36032 ft 456 kts 236°
2026-04-26 10:30 16.99389 -58.55837 36031 ft 456 kts 236°
2026-04-26 10:31 16.95798 -58.61335 36030 ft 456 kts 236°
2026-04-26 10:31 16.92217 -58.66813 36019 ft 456 kts 236°
2026-04-26 10:32 16.88629 -58.72297 36037 ft 456 kts 236°
2026-04-26 10:32 16.85045 -58.77771 36029 ft 456 kts 236°
2026-04-26 10:33 16.81461 -58.83240 36018 ft 456 kts 236°
2026-04-26 10:33 16.77867 -58.88722 36017 ft 457 kts 236°
2026-04-26 10:34 16.74275 -58.94195 36022 ft 457 kts 236°
2026-04-26 10:34 16.70673 -58.99679 36022 ft 457 kts 236°
2026-04-26 10:35 16.67075 -59.05155 36022 ft 457 kts 236°
2026-04-26 10:35 16.63476 -59.10627 36021 ft 458 kts 236°
2026-04-26 10:36 16.59888 -59.16078 36023 ft 458 kts 236°
2026-04-26 10:36 16.56258 -59.21588 36018 ft 458 kts 236°
2026-04-26 10:37 16.52664 -59.27040 36011 ft 459 kts 236°
2026-04-26 10:37 16.49017 -59.32567 36015 ft 459 kts 236°
2026-04-26 10:38 16.45388 -59.38063 36014 ft 460 kts 236°
2026-04-26 10:38 16.41780 -59.43522 36014 ft 460 kts 236°
2026-04-26 10:39 16.38147 -59.49015 36018 ft 460 kts 236°
2026-04-26 10:39 16.34484 -59.54549 36008 ft 460 kts 236°
2026-04-26 10:40 16.30832 -59.60062 36017 ft 461 kts 236°
2026-04-26 10:40 16.27189 -59.65560 36013 ft 462 kts 236°
2026-04-26 10:41 16.23533 -59.71072 36012 ft 462 kts 236°
2026-04-26 10:41 16.19875 -59.76581 36005 ft 462 kts 236°
2026-04-26 10:42 16.16245 -59.82045 36015 ft 462 kts 236°
2026-04-26 10:42 16.12583 -59.87554 36016 ft 462 kts 236°
2026-04-26 10:43 16.08906 -59.93085 35673 ft 464 kts 235°
2026-04-26 10:43 16.07064 -59.95852 35194 ft 466 kts 235°
2026-04-26 10:43 16.05201 -59.98651 34613 ft 469 kts 235°
2026-04-26 10:44 16.03340 -60.01446 33972 ft 472 kts 235°
2026-04-26 10:44 16.01446 -60.04289 33205 ft 476 kts 235°
2026-04-26 10:44 15.99582 -60.07086 32474 ft 479 kts 235°
2026-04-26 10:44 15.97647 -60.09986 31715 ft 482 kts 235°
2026-04-26 10:45 15.95729 -60.12861 30940 ft 486 kts 235°
2026-04-26 10:45 15.93810 -60.15724 30149 ft 489 kts 234°
2026-04-26 10:45 15.91755 -60.18555 29193 ft 491 kts 231°
2026-04-26 10:45 15.89552 -60.21270 28438 ft 488 kts 229°
2026-04-26 10:46 15.87246 -60.23828 27891 ft 483 kts 226°
2026-04-26 10:46 15.84877 -60.26292 27337 ft 478 kts 225°
2026-04-26 10:46 15.82530 -60.28719 26718 ft 474 kts 225°
2026-04-26 10:46 15.80205 -60.31120 26168 ft 469 kts 225°
2026-04-26 10:47 15.77895 -60.33504 25600 ft 465 kts 225°
2026-04-26 10:47 15.75605 -60.35868 25086 ft 459 kts 225°
2026-04-26 10:47 15.73346 -60.38199 24534 ft 455 kts 225°
2026-04-26 10:47 15.71111 -60.40507 24045 ft 450 kts 225°
2026-04-26 10:48 15.68891 -60.42798 23570 ft 445 kts 225°
2026-04-26 10:48 15.66707 -60.45050 23036 ft 440 kts 225°
2026-04-26 10:48 15.64549 -60.47274 22560 ft 434 kts 225°
2026-04-26 10:48 15.62419 -60.49469 22096 ft 428 kts 225°
2026-04-26 10:49 15.60316 -60.51636 21637 ft 422 kts 225°
2026-04-26 10:49 15.58239 -60.53776 21189 ft 418 kts 225°
2026-04-26 10:49 15.56190 -60.55888 20734 ft 413 kts 225°
2026-04-26 10:49 15.54159 -60.57980 20275 ft 410 kts 225°
2026-04-26 10:50 15.52170 -60.60028 19842 ft 406 kts 225°
2026-04-26 10:50 15.50813 -60.61425 19544 ft 404 kts 225°
2026-04-26 10:50 15.48184 -60.64130 18962 ft 400 kts 225°
2026-04-26 10:50 15.46209 -60.66161 18520 ft 398 kts 225°
2026-04-26 10:51 15.44247 -60.68179 18047 ft 395 kts 225°
2026-04-26 10:51 15.40360 -60.72175 17132 ft 389 kts 225°
2026-04-26 10:51 15.38445 -60.74143 16682 ft 386 kts 225°
2026-04-26 10:52 15.36549 -60.76091 16260 ft 383 kts 225°
2026-04-26 10:52 15.34653 -60.78038 15829 ft 381 kts 225°
2026-04-26 10:52 15.32779 -60.79962 15391 ft 379 kts 225°
2026-04-26 10:52 15.30908 -60.81881 14969 ft 376 kts 225°
2026-04-26 10:53 15.29051 -60.83787 14542 ft 374 kts 225°
2026-04-26 10:53 15.27203 -60.85685 14121 ft 373 kts 224°
2026-04-26 10:53 15.25392 -60.87542 13695 ft 370 kts 224°
2026-04-26 10:54 15.21740 -60.91286 12793 ft 365 kts 224°
2026-04-26 10:54 15.19939 -60.93132 12347 ft 362 kts 224°
2026-04-26 10:54 15.18155 -60.94959 11944 ft 360 kts 224°
2026-04-26 10:54 15.16381 -60.96776 11522 ft 357 kts 224°
2026-04-26 10:55 15.14617 -60.98583 11122 ft 354 kts 224°
2026-04-26 10:55 15.12880 -61.00360 10778 ft 350 kts 224°
2026-04-26 10:55 15.11184 -61.02096 10687 ft 335 kts 224°
2026-04-26 10:55 15.10098 -61.03208 10623 ft 326 kts 224°
2026-04-26 10:56 15.08000 -61.05354 10488 ft 309 kts 224°
2026-04-26 10:56 15.06496 -61.06892 10377 ft 297 kts 224°
2026-04-26 10:56 15.05056 -61.08366 10289 ft 286 kts 224°
2026-04-26 10:56 15.03667 -61.09787 10196 ft 275 kts 224°
2026-04-26 10:57 15.02329 -61.11157 10099 ft 268 kts 224°
2026-04-26 10:57 15.01451 -61.12054 9999 ft 267 kts 224°
2026-04-26 10:57 15.00122 -61.13412 9637 ft 269 kts 224°
2026-04-26 10:57 14.98786 -61.14778 9302 ft 269 kts 224°
2026-04-26 10:58 14.97446 -61.16148 8985 ft 269 kts 224°
2026-04-26 10:58 14.96107 -61.17516 8679 ft 268 kts 224°
2026-04-26 10:58 14.94782 -61.18869 8373 ft 267 kts 224°
2026-04-26 10:58 14.93461 -61.20218 8078 ft 266 kts 224°
2026-04-26 10:59 14.92139 -61.21568 7773 ft 265 kts 224°
2026-04-26 10:59 14.90828 -61.22906 7480 ft 265 kts 224°
2026-04-26 10:59 14.89514 -61.24247 7179 ft 264 kts 223°
2026-04-26 10:59 14.88199 -61.25588 6884 ft 264 kts 223°
2026-04-26 11:00 14.86889 -61.26925 6587 ft 264 kts 223°
2026-04-26 11:00 14.85580 -61.28260 6282 ft 264 kts 223°
2026-04-26 11:00 14.84142 -61.29436 5932 ft 263 kts 202°
2026-04-26 11:00 14.82382 -61.29804 5619 ft 259 kts 174°
2026-04-26 11:01 14.80637 -61.29368 5322 ft 257 kts 160°
2026-04-26 11:01 14.78953 -61.28757 5041 ft 256 kts 160°
2026-04-26 11:01 14.77261 -61.28139 4753 ft 255 kts 160°
2026-04-26 11:01 14.75570 -61.27531 4460 ft 254 kts 160°
2026-04-26 11:02 14.73901 -61.26940 4188 ft 253 kts 160°
2026-04-26 11:02 14.72232 -61.26360 3918 ft 251 kts 159°
2026-04-26 11:02 14.70600 -61.25792 3652 ft 249 kts 159°
2026-04-26 11:02 14.68936 -61.25208 3308 ft 250 kts 159°
2026-04-26 11:03 14.67304 -61.24637 2967 ft 251 kts 160°
2026-04-26 11:03 14.65648 -61.24066 2650 ft 250 kts 159°
2026-04-26 11:03 14.64003 -61.23497 2433 ft 245 kts 159°
2026-04-26 11:03 14.62410 -61.22943 2276 ft 238 kts 160°
2026-04-26 11:04 14.60856 -61.22406 2145 ft 231 kts 159°
2026-04-26 11:04 14.59360 -61.21891 2026 ft 222 kts 159°
2026-04-26 11:04 14.57945 -61.21403 2023 ft 209 kts 158°
2026-04-26 11:04 14.56783 -61.20611 2014 ft 195 kts 125°
2026-04-26 11:05 14.56306 -61.19384 2050 ft 178 kts 102°
2026-04-26 11:05 14.56217 -61.18115 2033 ft 176 kts 91°
2026-04-26 11:05 14.56321 -61.16847 2031 ft 178 kts 85°
2026-04-26 11:05 14.56509 -61.15571 2041 ft 180 kts 83°
2026-04-26 11:06 14.56724 -61.14316 2010 ft 168 kts 84°
2026-04-26 11:06 14.56925 -61.13157 2014 ft 161 kts 84°
2026-04-26 11:06 14.57118 -61.12012 1935 ft 160 kts 82°
2026-04-26 11:06 14.57312 -61.10869 1737 ft 159 kts 83°
2026-04-26 11:07 14.57504 -61.09739 1529 ft 158 kts 83°
2026-04-26 11:07 14.57692 -61.08617 1305 ft 158 kts 81°
2026-04-26 11:07 14.57893 -61.07496 1087 ft 157 kts 82°
2026-04-26 11:07 14.58092 -61.06389 904 ft 156 kts 82°
2026-04-26 11:08 14.58257 -61.05268 770 ft 156 kts 83°
2026-04-26 11:08 14.58440 -61.04159 546 ft 157 kts 82°
2026-04-26 11:08 14.58631 -61.03060 298 ft 154 kts 80°
2026-04-26 11:08 14.58823 -61.01982 86 ft 153 kts 81°
2026-04-26 11:09 14.58990 -61.00977 28 ft 115 kts 79°
2026-04-26 11:09 14.59092 -61.00392 27 ft 51 kts 80°
2026-04-26 11:09 14.59141 -61.00111 27 ft 25 kts 79°
2026-04-26 11:09 14.59181 -61.00022 29 ft 12 kts 19°
2026-04-26 11:10 14.59269 -61.00030 28 ft 13 kts 351°
2026-04-26 11:10 14.59355 -61.00049 28 ft 4 kts 335°
2026-04-26 11:10 14.59386 -61.00057 28 ft 6 kts
2026-04-26 11:10 14.59429 -61.00046 29 ft 6 kts 20°
2026-04-26 11:11 14.59444 -61.00040 29 ft 0 kts 21°